User: anonymous   Login
Location: Newark
(45.0667°N, 7.8333°E)
Time: 10:47:33
(UTC+00:00)
Language:

BEESAT 3 - Orbit

View from above orbital plane
View from above orbital plane
View from above satellite
View from above satellite

Ground track
Ground track

The orbit data is extracted from the following two-line orbital elements,

1 39134U 13015E   19295.13615496  .00001014  00000-0  55021-4 0  9994
2 39134  64.8631 333.9512 0037227 283.0050  76.6922 15.20412183359663
Epoch (UTC): 22 October 2019 03:16:03
Eccentricity: 0.0037227
inclination: 64.8631°
perigee height: 479 km
apogee height: 530 km
right ascension of ascending node: 333.9512°
argument of perigee: 283.0050°
revolutions per day: 15.20412183
mean anomaly at epoch: 76.6922°
orbit number at epoch: 35966

The dashed part of the orbit path shows where the satellite is in the earth's shadow,  

DLR